Dewpoint
56 36 34 31 28 32 30 31 33 30 28 30 33 34 52 54 56 55 66 70 72 75 76 76 77 77 77 76 76 76 76 76 76 76 76 76 76 77 76 76 75 75 73 71 70 71 71 72 72
46 37 34 30 26 28 31 33 35 29 30 30 30 35 51 54 56 59 64 70 72 74 75 76 77 76 77 77 76 76 76 76 76 76 76 76 76 76 76 76 75 73 71 70 70 71 71 72 72
42 35 30 26 26 26 29 37 37 36 31 31 31 37 48 54 57 56 65 69 71 72 74 76 77 76 76 77 76 76 76 76 76 76 76 76 76 76 76 75 75 73 70 69 70 71 72 72 72
27 27 26 23 22 24 30 32 38 40 32 30 31 44 51 58 59 60 65 68 69 70 75 77 77 77 76 76 76 76 76 76 76 76 76 76 76 76 75 75 74 73 71 69 70 71 72 73 72
22 23 20 22 23 25 26 28 41 39 32 30 33 49 51 57 59 60 64 65 67 70 75 76 77 77 77 77 76 76 76 76 76 76 76 76 76 75 75 75 74 73 71 70 69 70 70 70 69
19 20 18 18 19 22 24 27 33 32 32 31 31 48 51 56 57 58 60 64 65 73 74 75 77 77 77 77 76 76 76 76 76 76 76 76 75 75 75 75 74 73 71 70 69 69 68 67 67
19 18 15 15 15 16 17 20 31 31 31 29 31 42 43 44 55 57 58 63 71 72 73 74 75 76 77 77 76 76 76 76 75 75 75 75 75 75 75 74 73 73 71 70 69 68 68 66 66
17 17 14 14 13 12 14 13 28 29 30 30 33 34 35 42 42 56 57 68 70 71 71 72 74 75 75 76 77 76 76 76 76 75 75 75 75 75 74 73 73 73 72 71 70 70 68 67 66
15 15 14 13 12 11 11 12 13 28 28 28 30 33 35 34 38 41 53 61 68 70 70 70 71 73 73 74 75 76 76 76 76 75 75 74 73 73 73 73 73 73 72 71 71 70 69 69 68
13 16 15 16 14 11 12 15 15 17 24 26 28 30 32 30 30 30 36 57 59 68 68 68 69 70 69 72 74 74 75 75 75 75 74 73 71 72 71 72 73 73 72 71 71 71 70 70 65
12 12 18 17 16 16 14 15 15 16 19 22 28 29 25 29 30 29 31 37 55 65 66 66 66 68 66 65 73 73 73 74 74 73 73 72 70 71 70 68 70 70 71 69 70 69 68 66 64
10 13 16 16 16 14 15 16 15 15 17 19 21 23 22 22 26 32 31 30 32 44 63 64 65 66 64 65 70 70 70 72 72 72 73 72 70 67 68 67 67 68 68 66 66 66 65 64 61
11 13 14 15 15 13 14 14 14 14 16 18 19 19 20 20 23 24 28 29 32 48 64 66 66 65 64 67 68 67 66 68 68 70 71 71 69 68 67 66 64 66 65 64 62 62 62 61 60
12 12 13 12 13 14 12 13 14 15 16 14 17 18 17 18 23 23 27 31 41 63 65 70 71 71 70 70 70 69 66 66 66 66 67 69 69 67 68 65 64 64 64 63 58 61 61 60 62
12 11 12 12 13 12 13 11 12 15 15 15 16 20 20 20 22 21 25 32 42 53 65 66 67 70 70 68 70 73 71 68 67 65 66 67 68 68 68 66 65 65 63 61 60 59 61 62 61
16 14 7 10 13 14 12 9 15 16 15 16 19 19 22 23 25 25 29 36 40 49 63 67 62 64 62 60 69 72 72 72 69 66 66 67 66 69 68 68 65 66 65 62 61 59 63 62 61
17 14 14 13 13 12 12 10 15 16 16 21 18 19 18 20 24 26 32 43 49 50 51 56 62 59 62 68 71 71 72 71 72 68 69 68 67 67 69 68 67 66 65 66 64 62 61 60 59
14 14 14 13 11 10 9 11 14 12 19 20 22 21 24 24 26 28 31 39 46 48 51 53 56 61 64 69 72 73 72 72 71 71 70 70 68 68 68 68 67 66 65 64 65 63 62 60 59
14 14 12 12 13 14 10 11 13 16 20 20 23 23 25 26 26 32 35 37 48 52 51 50 51 57 61 62 60 70 71 71 71 72 70 70 70 68 68 67 68 68 65 63 64 63 62 62 63
16 14 14 16 17 13 15 15 17 17 18 19 23 25 27 30 30 30 35 44 47 48 52 56 54 54 57 60 63 63 64 69 70 71 71 71 71 71 68 67 69 68 68 65 63 64 62 61 64
17 17 18 18 19 17 16 16 18 22 20 20 22 24 26 28 30 32 43 44 47 48 49 54 53 57 55 59 60 60 62 63 65 68 70 70 71 71 71 70 68 69 68 66 66 64 63 61 64
15 17 15 18 18 15 16 11 17 22 20 21 20 21 26 28 32 41 42 43 41 41 44 54 56 54 56 55 57 57 59 59 60 61 63 67 70 70 70 70 70 70 70 69 69 68 65 62 61
20 21 15 17 17 19 17 16 17 20 20 21 24 21 25 30 37 38 39 40 40 37 45 51 51 50 49 58 59 59 58 59 60 61 61 59 63 67 70 70 70 68 67 68 69 68 68 66 62
22 21 23 22 18 14 16 18 16 18 19 21 26 27 33 35 35 36 38 37 35 40 41 48 47 51 51 51 54 55 57 60 60 59 59 59 59 63 67 61 61 65 63 65 68 69 68 67 64
21 20 18 18 17 17 19 17 17 22 30 30 31 34 34 34 34 33 35 35 37 37 42 42 45 46 49 51 52 54 54 56 60 61 61 58 57 57 59 65 66 66 65 66 67 66 66 68 67
18 20 19 17 18 17 22 23 26 30 32 30 33 35 35 34 33 34 35 34 34 38 42 43 45 45 48 48 50 53 57 58 59 59 59 59 59 60 61 62 66 65 63 62 64 61 60 63 68
26 25 24 26 26 24 25 26 28 34 35 35 35 34 34 32 35 33 32 34 36 37 42 45 43 48 48 50 52 52 54 55 53 57 61 61 61 61 60 61 61 65 66 63 63 61 59 63 64
31 29 25 28 25 23 26 25 28 34 35 35 36 35 34 34 34 32 32 36 35 36 40 43 46 44 46 46 48 52 54 54 55 57 59 59 59 57 56 56 55 61 61 61 62 61 61 59 63
29 28 27 28 35 28 24 26 36 36 36 37 36 36 36 35 34 33 33 32 33 37 37 41 44 45 46 47 47 48 48 49 53 57 57 58 57 57 55 54 54 53 55 59 56 55 56 57 64
30 30 35 36 33 33 30 29 35 37 35 37 37 37 38 38 36 35 32 30 31 36 35 36 44 44 44 45 47 48 48 51 53 53 55 57 56 56 55 54 53 53 54 55 55 58 58 61 60
Lifted_Index
8 8 7 5 3 2 1 0 0 1 1 2 1 -0 -2 -3 -3 -3 -3 -4 -5 -5 -5 -5 -5 -5 -5 -4 -4 -4 -3 -3 -3 -3 -3 -3 -3 -3 -2 -2 -1 -0 0 1 1 1 -0 -1 -1
9 8 7 5 3 2 1 0 0 1 1 1 1 -0 -2 -3 -3 -3 -4 -4 -5 -5 -5 -5 -5 -5 -5 -4 -4 -4 -4 -4 -4 -4 -3 -3 -3 -3 -3 -2 -1 -0 1 1 1 0 -0 -1 -1
9 8 6 4 3 2 2 1 0 0 1 1 1 -0 -2 -3 -2 -2 -4 -5 -5 -5 -5 -6 -6 -5 -5 -5 -4 -4 -4 -4 -4 -4 -4 -4 -4 -3 -3 -2 -2 -0 1 1 1 0 -1 -1 -2
8 7 6 4 2 2 2 1 0 0 1 2 1 -0 -2 -2 -2 -2 -3 -4 -4 -4 -5 -6 -6 -6 -5 -5 -4 -4 -4 -4 -4 -4 -4 -4 -4 -4 -3 -3 -2 -1 1 1 1 0 -0 -1 -1
7 7 5 3 3 2 2 1 0 0 1 1 1 -1 -2 -2 -2 -2 -3 -3 -4 -5 -5 -6 -6 -6 -6 -5 -5 -5 -5 -5 -5 -5 -5 -5 -4 -4 -4 -3 -2 -1 0 1 1 1 1 1 1
7 6 4 3 3 3 2 1 0 -0 1 1 0 -1 -2 -1 -1 -2 -2 -3 -4 -5 -5 -6 -6 -6 -6 -6 -5 -5 -5 -5 -5 -5 -5 -5 -4 -4 -4 -4 -3 -2 -0 1 1 2 2 3 3
6 5 4 3 3 3 3 2 0 -0 0 1 0 -1 -1 -1 -1 -2 -3 -3 -5 -5 -5 -5 -6 -6 -6 -6 -6 -6 -6 -6 -5 -5 -5 -5 -5 -4 -4 -4 -3 -2 -1 -0 1 1 2 3 4
7 6 4 3 3 3 2 2 0 -0 -0 0 1 1 0 0 -0 -1 -3 -4 -5 -6 -6 -5 -6 -6 -6 -7 -7 -6 -6 -6 -6 -6 -6 -6 -5 -5 -4 -4 -4 -3 -2 -1 -0 0 1 2 3
7 6 5 4 4 3 3 2 1 0 0 1 2 3 3 3 2 1 -2 -4 -5 -6 -6 -5 -6 -6 -6 -7 -7 -7 -7 -7 -7 -7 -6 -6 -5 -5 -5 -4 -4 -3 -3 -2 -1 -1 0 1 1
7 6 5 5 5 4 3 3 3 2 2 3 4 4 5 5 4 3 1 -2 -4 -5 -6 -6 -5 -5 -6 -6 -7 -7 -7 -7 -7 -7 -7 -6 -5 -5 -5 -5 -4 -4 -3 -3 -2 -2 -1 0 1
7 6 6 6 6 6 5 4 4 4 4 5 5 5 5 6 5 4 3 1 -2 -3 -5 -5 -5 -5 -5 -5 -6 -7 -7 -7 -7 -7 -7 -6 -5 -5 -5 -4 -4 -4 -4 -3 -2 -2 -1 -0 1
7 7 7 6 6 6 6 6 6 5 5 6 6 6 6 6 6 6 4 3 1 -1 -3 -4 -4 -4 -4 -4 -5 -5 -6 -6 -7 -7 -7 -6 -5 -5 -5 -4 -3 -3 -3 -2 -1 -1 -0 0 1
7 7 7 7 7 7 7 7 7 6 6 6 7 7 7 7 7 7 6 4 3 -0 -3 -4 -4 -4 -4 -4 -5 -5 -5 -6 -6 -6 -6 -6 -5 -5 -5 -4 -3 -2 -2 -1 -0 0 0 0 1
7 7 7 7 7 7 7 7 7 7 7 7 7 7 7 7 7 7 7 5 3 -1 -4 -5 -5 -4 -4 -5 -5 -6 -6 -6 -5 -5 -5 -6 -5 -5 -5 -4 -3 -3 -2 -1 0 0 -0 -1 -1
7 7 7 7 6 6 6 7 7 7 7 7 7 8 8 7 8 8 7 6 4 -0 -4 -5 -5 -5 -4 -4 -5 -7 -7 -7 -6 -5 -5 -5 -6 -6 -5 -5 -4 -3 -3 -2 -1 -0 -1 -1 -1
7 6 6 6 6 6 6 6 6 6 7 7 7 7 8 8 8 8 7 6 4 2 -1 -3 -4 -4 -3 -4 -5 -7 -8 -7 -6 -5 -5 -5 -6 -6 -6 -5 -4 -4 -3 -2 -2 -1 -2 -2 -1
6 5 5 5 4 4 5 5 5 6 6 6 7 7 7 7 8 7 7 6 5 4 2 0 -1 -2 -3 -4 -6 -8 -8 -8 -7 -6 -6 -5 -5 -6 -5 -5 -4 -4 -3 -2 -2 -2 -2 -2 -2
5 5 4 4 3 3 3 4 5 5 5 6 6 6 7 7 7 7 7 6 6 5 4 3 1 -1 -2 -4 -6 -8 -8 -8 -8 -7 -7 -6 -6 -5 -5 -5 -4 -4 -3 -3 -3 -2 -2 -1 -1
4 4 4 3 2 2 2 2 3 5 5 5 5 6 6 6 6 7 7 6 6 5 4 3 2 1 -0 -2 -3 -5 -7 -8 -8 -8 -8 -7 -6 -6 -6 -6 -5 -5 -5 -4 -4 -3 -2 -2 -2
4 4 4 3 2 2 2 2 3 4 5 4 5 5 5 6 6 6 6 6 5 5 4 3 3 2 1 0 -1 -2 -3 -5 -7 -8 -8 -8 -7 -7 -7 -7 -6 -6 -6 -6 -5 -4 -4 -3 -3
4 4 4 3 3 3 3 3 3 4 4 4 4 5 5 5 5 5 5 5 5 5 5 4 3 2 2 1 1 0 -0 -2 -4 -5 -6 -7 -7 -7 -7 -7 -7 -7 -7 -7 -6 -6 -6 -5 -5
4 4 4 4 4 3 3 3 3 4 4 4 4 4 4 4 5 5 5 5 5 6 5 4 4 4 3 2 1 1 0 0 -1 -2 -3 -4 -5 -6 -7 -7 -7 -7 -6 -7 -7 -7 -7 -6 -6
4 4 4 4 4 4 4 4 4 4 4 3 3 3 3 3 4 4 5 5 5 5 5 5 5 5 4 3 2 1 1 1 0 -0 -1 -2 -3 -4 -5 -5 -6 -5 -5 -5 -5 -6 -7 -7 -6
4 4 4 4 4 4 4 4 4 3 2 2 1 1 1 2 3 4 4 5 5 5 6 6 6 6 5 4 3 3 2 2 1 1 1 0 -0 -1 -2 -3 -4 -3 -2 -3 -4 -4 -5 -6 -6
3 3 3 2 2 3 3 3 3 2 1 1 1 1 1 1 2 3 4 4 5 5 6 6 6 6 6 5 5 4 4 3 2 1 1 1 1 1 0 -1 -2 -2 -1 -2 -3 -3 -3 -4 -4
2 2 1 1 1 2 2 3 2 1 1 1 1 1 1 1 2 2 3 4 4 5 5 6 6 6 6 6 6 5 4 4 3 2 2 1 1 1 0 -1 -2 -2 -2 -2 -2 -1 -1 -1 -2
1 1 1 1 1 2 2 2 1 0 0 1 1 1 1 2 2 2 3 4 4 5 5 6 6 6 6 6 6 5 5 4 4 3 2 2 2 1 1 -0 -1 -2 -2 -2 -1 0 1 -0 -1
0 0 0 1 1 1 2 1 0 -0 0 0 1 1 1 2 2 3 3 4 5 5 6 6 6 6 7 7 6 6 5 5 5 3 2 2 3 3 2 1 -0 -1 -1 -1 -0 0 0 -0 -1
0 0 -0 0 1 1 1 1 0 -0 0 0 0 1 1 1 2 3 3 4 5 5 6 6 6 6 7 7 6 6 6 6 5 3 3 3 3 4 3 2 1 0 0 -0 -0 -0 -0 -1 -2
1 0 -0 0 0 1 1 2 1 0 0 1 1 1 1 1 2 2 3 4 4 5 6 6 6 6 6 7 6 6 6 6 5 4 3 3 3 4 4 3 2 1 1 0 -0 -1 -1 -2 -2